Weather History for Rio De Janeiro Aeroporto, Brazil

Change the Weather History Date:

Monday, November 4, 2013

  Actual Average Record
Temperature  
Mean Temperature 76 °F -  
Max Temperature 84 °F 80 °F - ()
Min Temperature 69 °F 69 °F - ()
Cooling Degree Days 12    
Growing Degree Days 26 (Base 50)    
Moisture  
Dew Point 65 °F    
Average Humidity 66    
Maximum Humidity 83    
Minimum Humidity 45    
Precipitation  
Precipitation 0.00 in - - ()
Sea Level Pressure  
Sea Level Pressure 29.80 in    
Wind  
Wind Speed 7 mph ()    
Max Wind Speed 18 mph    
Max Gust Speed -    
Visibility 6.2 miles    
Events      
T = Trace of Precipitation, MM = Missing Value Source: Averaged Metar Reports

Daily Weather History Graph

Daily Weather History Graph

Search for Another Location

Airport:

Trip Planner

Search our weather history database for the weather conditions in past years. The results will help you decide how hot, cold, wet, or windy it might be!

Date:

Astronomy

Nov. 04, 2013 Rise Set
Actual Time 6:05 AM BRST 7:07 PM BRST
Civil Twilight 5:41 AM BRST 7:30 PM BRST
Nautical Twilight 5:14 AM BRST 7:58 PM BRST
Astronomical Twilight 4:45 AM BRST 8:27 PM BRST
Moon 6:52 AM BRST (11/4) 8:25 PM BRST (11/4)
Length of Visible Light 13h 48m
Length of Day
13h 01m
New Moon, 1% of the Moon is Illuminated
Nov 4
New Moon
Nov 10
First Quarter
Nov 17
Full
Nov 25
Last Quarter
Dec 2
New

Hourly Weather History & Observations

Time (BRST) Temp. Heat Index Dew Point Humidity Pressure Visibility Wind Dir Wind Speed Gust Speed Precip Events Conditions
5:25 AM 71.6 °F - 62.6 °F 73% 29.77 in - NW 5.8 mph - N/A   Clear
6:00 AM 69.8 °F - 62.6 °F 78% 29.77 in - NW 6.9 mph - N/A   Clear
7:00 AM 71.6 °F - 62.6 °F 73% 29.80 in - NNW 6.9 mph - N/A   Clear
8:00 AM 78.8 °F - 64.4 °F 61% 29.80 in - NW 8.1 mph - N/A   Clear
9:00 AM 77.0 °F - 62.6 °F 61% 29.80 in - North 4.6 mph - N/A   Clear
10:00 AM 80.6 °F 82.3 °F 64.4 °F 58% 29.80 in - NE 5.8 mph - N/A   Clear
11:00 AM 84.2 °F 86.6 °F 66.2 °F 55% 29.80 in - NE 4.6 mph - N/A   Clear
12:00 PM 78.8 °F - 68.0 °F 69% 29.80 in - SE 5.8 mph - N/A   Clear
1:00 PM 80.6 °F 82.7 °F 66.2 °F 61% 29.77 in - SSE 9.2 mph - N/A   Clear
2:00 PM 84.2 °F 84.4 °F 60.8 °F 45% 29.74 in - South 16.1 mph - N/A   Clear
3:00 PM 80.6 °F 81.8 °F 62.6 °F 54% 29.74 in - SSE 18.4 mph - N/A   Clear
4:00 PM 80.6 °F 81.8 °F 62.6 °F 54% 29.74 in - South 18.4 mph - N/A   Clear
5:00 PM 78.8 °F - 64.4 °F 61% 29.74 in - South 18.4 mph - N/A   Clear
6:00 PM 78.8 °F - 64.4 °F 61% 29.77 in - South 15.0 mph - N/A   Clear
7:00 PM 75.2 °F - 64.4 °F 69% 29.80 in - South 10.4 mph - N/A   Clear
8:00 PM 73.4 °F - 66.2 °F 78% 29.83 in 6.2 mi South 9.2 mph - N/A   Scattered Clouds
9:00 PM 75.2 °F - 66.2 °F 73% 29.86 in 6.2 mi NW 2.3 mph - N/A   Mostly Cloudy
10:00 PM 73.4 °F - 68.0 °F 83% 29.89 in 6.2 mi NE 3.5 mph - N/A   Mostly Cloudy
11:00 PM 73.4 °F - 68.0 °F 83% 29.89 in 6.2 mi ENE 3.5 mph - N/A   Mostly Cloudy